TITAN 3C TRANSTAGE DEB

基本信息
目录编号:
43456
目录名称:
TITAN 3C TRANSTAGE DEB
国际标识:
1969-013P
轨道中心:
EARTH
物体状态:
在轨
发射日期:
1969-02-09 UTC
轨道信息
数据来源: 国际轨道数据
星历时间: 2026-07-13T11:33:48+0800
半长轴: 41498.649km
偏心率: 0.0970576
轨道倾角: 2.062°
近地点辐角: 48.228°
升交点赤经: 52.887°
平近点角: 319.545°
近地点: 31092.752km
远地点: 39148.272km
周期: 1402.202分钟
每日圈数: 1.026956
详细信息
发射场:
AFETR
轨道高度:
MEO
数据来源:
AOE Integration Group
参考系:
TEME
时间系统:
UTC
历元类型:
SGP4
2D轨道图
3D轨道图
轨道高度分析图
轨道倾角分析图
轨道综合分析图
查看轨道综合分析图